This demonstration page uses our WeatherBlox Daily Observations layout. Learn more.

Left ArrowRight Arrow

44.89941, -97.11507

Hourly Observations for January 29, 2021

Temp ( °F °C ) Dew Point ( °F °C ) Humidity (%) Winds ( mph kmh ) Pressure ( in mb ) Visibility ( mi km ) Precip ( " mm )
12:53 am 00:53 Cloudy with Mist and Fog 20 -6.7 18 -7.8 92 92 SSE 13 20 30.22 1023 4 6 0.00 0.00
1:53 am 01:53 Cloudy with Mist and Fog 20 -6.7 19 -7.2 96 96 SE 8 13 30.19 1022 4 6 0.00 0.00
2:04 am 02:04 Cloudy with Mist and Fog 20 -6.7 19 -7.2 96 96 SSE 12 19 30.24 1024 4 6 0.00 0.00
2:53 am 02:53 Cloudy with Mist and Fog 20 -6.7 20 -6.7 100 100 SSE 12 19 30.19 1023 4 6 0.00 0.00
3:53 am 03:53 Cloudy with Mist and Fog 21 -6.1 20 -6.7 96 96 SE 12 19 30.18 1022 4 6 0.00 0.00
4:53 am 04:53 Cloudy with Mist and Fog 21 -6.1 21 -6.1 100 100 ESE 12 19 30.15 1021 3 4 0.00 0.00
5:01 am 05:01 Cloudy with Mist and Fog 21 -6.1 21 -6.1 100 100 ESE 12 19 30.18 1022 3 5 0.00 0.00
5:23 am 05:23 Cloudy with Mist and Fog 22 -5.6 21 -6.1 96 96 SE 8 13 30.19 1022 3 4 0.00 0.00
5:53 am 05:53 Cloudy with Mist and Fog 22 -5.6 21 -6.1 96 96 SE 12 19 30.14 1021 3 4 0.00 0.00
6:53 am 06:53 Cloudy with Mist and Fog 23 -5 22 -5.6 96 96 SE 12 19 30.13 1020 3 5 0.00 0.00
7:21 am 07:21 Cloudy with Mist and Fog 23 -5 22 -5.6 96 96 ESE 8 13 30.16 1021 3 4 0.00 0.00
7:45 am 07:45 Cloudy with Mist and Fog 23 -5 23 -5 100 100 SE 8 13 30.15 1021 3 5 0.00 0.00
7:53 am 07:53 Cloudy with Mist and Fog 23 -5 23 -5 100 100 ESE 10 17 30.11 1020 3 5 0.00 0.00
8:36 am 08:36 Cloudy with Mist and Fog 24 -4.4 23 -5 96 96 ESE 9 15 30.14 1021 4 6 0.00 0.00
8:48 am 08:48 Cloudy with Mist and Fog 21 -6 21 -6 100 100 ESE 8 13 30.14 1021 2 3 0.00 0.00
8:53 am 08:53 Cloudy with Mist and Fog 22 -5.6 22 -5.6 100 100 ESE 9 15 30.11 1020 2 3 0.00 0.00
9:00 am 09:00 Cloudy with Mist and Fog 22 -5.6 22 -5.6 100 100 E 8 13 30.14 1021 2 3 0.00 0.00
9:53 am 09:53 Cloudy with Mist and Fog 23 -5 22 -5.6 96 96 ESE 10 17 30.08 1019 2 3 0.00 0.00
10:20 am 10:20 Cloudy with Mist and Fog 23 -5 23 -5 100 100 ESE 12 19 30.12 1020 1 2 0.00 0.00
10:33 am 10:33 Cloudy with Mist and Fog 24 -4.4 23 -5 96 96 ESE 10 17 30.10 1019 2 3 0.00 0.00
10:53 am 10:53 Cloudy with Mist and Fog 24 -4.4 23 -5 96 96 ESE 9 15 30.07 1018 2 2 0.00 0.00
11:53 am 11:53 Cloudy with Mist and Fog 23 -5 22 -5.6 96 96 SE 14 22 30.07 1018 2 2 0.00 0.00
12:30 pm 12:30 Cloudy with Mist and Fog 24 -4.4 23 -5 96 96 SE 14 22 30.08 1019 2 3 0.00 0.00
12:53 pm 12:53 Cloudy with Mist and Fog 24 -4.4 23 -5 96 96 SE 14 22 30.04 1017 3 4 0.00 0.00
1:09 pm 13:09 Cloudy with Mist and Fog 24 -4.4 23 -5 96 96 ESE 13 20 30.04 1017 3 4 0.00 0.00
1:17 pm 13:17 Cloudy with Mist and Fog 24 -4.4 23 -5 96 96 ESE 13 20 30.03 1017 3 5 0.00 0.00
1:53 pm 13:53 Cloudy with Mist and Fog 25 -3.9 23 -5 92 92 ESE 12 19 29.99 1016 3 5 0.00 0.00
2:24 pm 14:24 Cloudy with Mist and Fog 24 -4.4 23 -5 96 96 ESE 12 19 30.00 1016 3 4 0.00 0.00
2:44 pm 14:44 Cloudy with Mist and Fog 24 -4.4 23 -5 96 96 ESE 10 17 30.00 1016 2 3 0.00 0.00
2:53 pm 14:53 Cloudy with Mist and Fog 24 -4.4 23 -5 96 96 ESE 8 13 29.96 1015 2 3 0.00 0.00
3:09 pm 15:09 Cloudy with Mist and Fog 23 -5 22 -5.6 96 96 E 13 20 30.01 1016 1 2 0.00 0.00
3:23 pm 15:23 Cloudy with Mist and Fog 23 -5 22 -5.6 96 96 ESE 9 15 30.01 1016 1 1 0.00 0.00
3:53 pm 15:53 Cloudy with Freezing Fog 22 -5.6 22 -5.6 100 100 ESE 14 22 29.96 1015 1 1 0.00 0.00
4:53 pm 16:53 Cloudy with Mist and Fog 21 -6.1 21 -6.1 100 100 ESE 9 15 29.95 1014 1 1 0.00 0.00
5:42 pm 17:42 Cloudy with Mist and Fog 21 -6.1 20 -6.7 96 96 ESE 15 24 29.99 1016 1 2 0.00 0.00
5:53 pm 17:53 Cloudy with Mist and Fog 21 -6.1 20 -6.7 96 96 ESE 13 20 29.95 1014 2 2 0.00 0.00
6:53 pm 18:53 Cloudy with Mist and Fog 21 -6.1 20 -6.7 96 96 ESE 14 22 29.93 1013 2 3 0.00 0.00
7:53 pm 19:53 Cloudy with Mist and Fog 22 -5.6 21 -6.1 96 96 SE 15 24 29.93 1013 1 2 0.00 0.00
8:53 pm 20:53 Cloudy with Mist and Fog 23 -5 22 -5.6 96 96 SE 13 20 29.90 1012 2 2 0.00 0.00
9:01 pm 21:01 Cloudy with Mist and Fog 23 -5 22 -5.6 96 96 SE 13 20 29.93 1013 3 5 0.00 0.00
9:19 pm 21:19 Cloudy with Mist and Fog 23 -5 22 -5.6 96 96 SE 13 20 29.93 1013 3 5 0.00 0.00
9:53 pm 21:53 Cloudy with Mist and Fog 23 -5 22 -5.6 96 96 SSE 13 20 29.89 1012 3 5 0.00 0.00
10:21 pm 22:21 Cloudy with Mist and Fog 23 -5 23 -5 100 100 SE 13 20 29.91 1013 3 4 0.00 0.00
10:33 pm 22:33 Cloudy with Mist and Fog 23 -5 23 -5 100 100 ESE 13 20 29.90 1012 3 4 0.00 0.00
10:53 pm 22:53 Cloudy with Mist and Fog 24 -4.4 23 -5 96 96 SE 9 15 29.87 1011 2 3 0.00 0.00
11:18 pm 23:18 Cloudy with Mist and Fog 23 -5 23 -5 100 100 SE 12 19 29.91 1013 2 3 0.00 0.00
11:53 pm 23:53 Cloudy with Mist and Fog 23 -5 23 -5 100 100 SE 9 15 29.87 1011 2 3 0.00 0.00

Powered by AerisWeather